FW3610 Weather Reports


Display with metric or nautical units.
time (UTC)temp
F
wind
direction
speed
MPH
gust
MPH
rain 1hr
in
rain 24hr
in
rain mn
in
humidity
%
barometer
mb
20260506101519 34 275 3.0 0.0 0.00 0.00 0.00 87 1006.2
20260506100028 35 282 2.0 0.0 0.00 0.00 0.00 84 1006.1
20260506094508 37 287 3.0 0.0 0.00 0.00 0.00 80 1006.1
20260506093005 40 271 5.0 0.0 0.00 0.00 0.00 76 1005.9
20260506091501 39 262 2.0 0.0 0.00 0.00 0.00 79 1005.6
20260506090057 42 275 4.0 0.0 0.00 0.00 0.00 75 1005.2
20260506084558 43 277 3.0 0.0 0.00 0.00 0.00 76 1005.5
20260506083058 44 277 6.0 0.0 0.00 0.00 0.00 72 1005.0
20260506081557 43 266 4.0 0.0 0.00 0.00 0.00 77 1004.9
20260506073049 42 306 1.0 0.0 0.00 0.00 0.00 82 1004.8
20260506071546 42 306 0.0 0.0 0.00 0.00 0.00 83 1004.9
20260506061537 44 328 5.0 0.0 0.00 0.00 0.00 79 1004.4
20260506044527 49 311 8.0 0.0 0.00 0.00 0.01 66 1003.5
20260506043024 50 323 8.0 0.0 0.00 0.00 0.01 62 1003.2
20260506041521 49 227 5.0 0.0 0.00 0.00 0.01 72 1002.8
20260506040033 49 234 6.0 0.0 0.00 0.00 0.01 74 1002.6
20260506034521 48 225 4.0 0.0 0.00 0.00 0.01 72 1002.4
20260506033017 46 223 5.0 0.0 0.00 0.00 0.01 74 1002.1
20260506031514 46 250 3.0 0.0 0.00 0.00 0.01 71 1002.1
20260506030013 48 250 5.0 0.0 0.00 0.00 0.01 65 1001.6
20260506024508 48 261 5.0 0.0 0.00 0.00 0.01 65 1001.3
20260506023006 50 253 7.0 0.0 0.00 0.00 0.01 61 1001.1
20260506021511 51 229 11.0 0.0 0.00 0.00 0.01 59 1000.9
20260506020004 53 246 6.0 0.0 0.00 0.00 0.01 60 1001.3
20260506014504 52 279 5.0 0.0 0.00 0.00 0.01 58 1000.0
20260506013005 53 298 7.0 0.0 0.00 0.00 0.01 55 999.3
20260506011504 56 294 9.0 0.0 0.00 0.00 0.01 50 999.2
20260506010003 64 310 10.0 0.0 0.00 0.00 0.01 41 999.0
20260506004502 64 285 11.0 0.0 0.00 0.00 0.01 40 998.9
20260506003001 66 296 10.0 0.0 0.00 0.00 0.01 39 998.7
20260506001600 65 286 12.0 0.0 0.00 0.00 0.01 40 998.6
20260505234610 67 343 12.0 0.0 0.00 0.00 0.01 40 998.7
20260505233058 68 287 13.0 0.0 0.00 0.00 0.01 40 998.5
20260505231558 67 324 14.0 0.0 0.00 0.00 0.01 40 998.3
20260505230056 68 295 15.0 0.0 0.00 0.00 0.01 41 998.4
20260505224557 67 297 17.0 0.0 0.00 0.00 0.01 41 998.3
20260505223055 69 319 18.0 0.0 0.00 0.00 0.01 39 998.7
20260505221555 67 332 10.0 0.0 0.00 0.00 0.01 40 998.5
20260505220054 72 315 11.0 0.0 0.00 0.00 0.01 32 998.0
20260505214622 73 286 12.0 0.0 0.00 0.00 0.01 33 998.0
20260505213102 73 316 16.0 0.0 0.00 0.00 0.01 33 998.2
20260505211552 72 298 18.0 0.0 0.00 0.00 0.01 31 998.4
20260505210056 70 308 21.0 0.0 0.00 0.00 0.01 35 998.6
20260505204557 73 287 10.0 0.0 0.00 0.00 0.01 37 998.5
20260505203054 64 257 12.0 0.0 0.00 0.00 0.01 58 999.3
20260505201553 65 300 16.0 0.0 0.00 0.00 0.01 42 998.7
20260505200100 73 242 17.0 0.0 0.00 0.00 0.01 30 998.9
20260505194549 77 234 15.0 0.0 0.00 0.00 0.01 29 998.9
20260505193048 74 231 16.0 0.0 0.00 0.00 0.01 33 999.3
20260505191542 72 215 15.0 0.0 0.00 0.00 0.01 35 999.6
20260505190040 72 188 15.0 0.0 0.00 0.00 0.01 37 999.8
20260505184539 71 237 14.0 0.0 0.00 0.00 0.01 39 1000.1
20260505183038 73 210 13.0 0.0 0.00 0.00 0.01 40 1000.0
20260505181540 74 222 13.0 0.0 0.00 0.00 0.01 39 1000.1
20260505180057 70 244 12.0 0.0 0.00 0.00 0.01 45 1000.2
20260505174553 66 238 10.0 0.0 0.00 0.00 0.01 50 1000.5
20260505173039 67 209 10.0 0.0 0.00 0.00 0.01 52 1000.6
20260505171530 60 213 9.0 0.0 0.00 0.00 0.01 66 1000.4
20260505170027 57 213 9.0 0.0 0.00 0.00 0.01 81 1000.6
20260505164526 55 219 8.0 0.0 0.00 0.00 0.01 84 1000.5
20260505163026 52 225 9.0 0.0 0.00 0.00 0.01 88 1000.6
20260505161525 50 216 9.0 0.0 0.00 0.00 0.01 89 1000.7
20260505153018 54 239 9.0 0.0 0.00 0.00 0.00 67 1000.2
20260505151516 55 246 10.0 0.0 0.00 0.00 0.00 58 1000.3
20260505124510 53 212 6.0 0.0 0.00 0.00 0.00 55 1000.0
20260505123009 52 234 4.0 0.0 0.00 0.00 0.00 57 1000.0
20260505121509 51 225 3.0 0.0 0.00 0.00 0.00 57 1000.0
20260505120010 51 201 4.0 0.0 0.00 0.00 0.00 58 1000.3
20260505114506 51 273 2.0 0.0 0.00 0.00 0.00 59 1000.4
20260505113005 51 325 2.0 0.0 0.00 0.00 0.00 56 1000.1
20260505111504 52 276 4.0 0.0 0.00 0.00 0.00 55 1000.1